{"data":{"norad_id":62273,"intl_designator":"2024-237G","name":"STARLINK-11333 [DTC]","alt_names":[],"object_type":"PAYLOAD","status":"ACTIVE","operator":null,"country":"US","launch_date":"2024-12-08","launch_site_code":"AFETR","launch_vehicle":null,"mission":null,"orbit_class":"UNKNOWN","rcs_meters":null,"size_class":null,"mass_kg":null,"dimensions":null,"purposes":["comms"],"wikipedia_slug":null,"has_3d_model":false,"image_url":null,"decayed_at":null,"tle_current":{"epoch":"2026-05-24T21:36:42.327360Z","epoch_age_seconds":80172,"freshness":"FRESH","line1":"1 62273U 24237G   26144.90048990  .00164635  00000+0  12588-2 0  9994","line2":"2 62273  42.9987 317.6485 0001703 237.6412 122.4291 15.70886581 85037","mean_motion":15.70886581,"eccentricity":0.0001703,"inclination_deg":42.9987,"raan_deg":317.6485,"arg_perigee_deg":237.6412,"mean_anomaly_deg":122.4291,"bstar":0.0012588,"rev_number":8503,"period_min":91.667980197738,"perigee_km":355.21504247531,"apogee_km":357.50881281006,"semimajor_km":6734.4989276427,"source":"CELESTRAK","updated_at":"2026-05-25T13:38:19.642722Z"}}}